Starlink 31975

operational
NORAD ID: 59886 Int'l Des: 2024-100 Owner: SPXS Country: US Constellation: starlink
LEOCIRCULAR

About Starlink 31975

Description loading...

Live Position

Loading 3D Globe...

Upcoming Passes

Altitude History

Altitude vs Time

uPlot chart will show altitude changes over time

Two-Line Element Set

1 59886U 24100B 25353.63790659 .00002449 00000-0 98442-4 0 9996
2 59886 43.0009 217.5190 0001405 265.1122 94.9570 15.27591895 88910
Epoch: Dec 19, 2025 • Age: 7 hours

Current Status

Altitude 485.8 km
Velocity 7.63 km/s
Sub-Earth Point 37.75°N, 79.92°W
Launch Date May 28, 2024
Age 1.5 years
Type internet

Technical Details

Classification Payload
Mass 730.00 kg
Dry Mass 700.00 kg
Total Mass 730.00 kg
Length 0.30 m
Diameter 4.10 m
Span 29.00 m
Shape Box + pan
Manufacturer SPXS
Bus Type Starlink V2M
Phase Status In Orbit
Owner/State SPXS/US

Large Constellations

Loading constellations...